User: anonymous   Login
Location: Julian California
(33.0790°N, 116.6010°W)
Time: 01:21:28
(UTC-08:00)
Language:

Cosmos 2058 - Orbit

View from above orbital plane
View from above orbital plane
View from above satellite
View from above satellite

Ground track
Ground track

The orbit data is extracted from the following two-line orbital elements,

1 20465U 90010A   19048.94010925 +.00000264 +00000-0 +20073-4 0  9997
2 20465 082.4898 020.4659 0016586 041.8008 318.4478 14.97830329555647
Epoch (UTC): 17 February 2019 22:33:45
Eccentricity: 0.0016586
inclination: 82.4898°
perigee height: 562 km
apogee height: 585 km
right ascension of ascending node: 20.4659°
argument of perigee: 41.8008°
revolutions per day: 14.97830329
mean anomaly at epoch: 318.4478°
orbit number at epoch: 55564

The dashed part of the orbit path shows where the satellite is in the earth's shadow,  

DLR